パンスターズ彗星

P/2019 W1 ( PanSTARRS )

English version
Home page
Updated on August 15, 2020

---------------------------------------------------------------------

・ プロフィール

発見日 2019年11月29日
発見光度 20.5等
発見者 Pan-STARRS 2 telescope (Haleakala)

・ 写真集

・ 軌道要素

Epoch 2019 Apr. 27.0 TT = JDT 2458600.5
T 2019 May 8.09358 TT                                   Williams
q   3.3399160            (2000.0)            P               Q
n   0.10155910     Peri.   18.76415     +0.60048127     -0.76560332
a   4.5497776      Node    35.42843     +0.67323512     +0.32828982
e   0.2659166      Incl.   23.46359     +0.43148200     +0.55324258
P   9.70
From 65 observations 2018 Aug. 8-2019 Dec. 20, mean residual 0".6.

・ 光度変化

        m1 = 12.5 + 5 logΔ + 10.0 log r

---------------------------------------------------------------------

軌道要素はM.P.E.C. 2020-A105に掲載されたものです。
光度グラフはComet for Windowsで作成したものです。

---------------------------------------------------------------------

Copyright(C) Seiichi Yoshida (comet@aerith.net). All rights reserved.